Scottish Viking — IBDZ — position and weather

sailwx.info

Track history (hours):
 
Tides and Currents Weather Stations Pressure Air Temp Water Temp Dewpoint Dewpoint Depression Visibility Wind Speed Wind Dir Waves Ship Positions

Scottish Viking

Last reported at 2014-Jul-22 19:33 UTC. Time now 2014-Jul-22 19:52 UTC.
Position N 58°29' E 018°39'.

Length 186 m; draft 6.3 m.

Type: Ship. MMSI: 247265800.

Date/timePositionNaut miles runAvg speedWind from/ knotsBaromVisibWave heightAir tempDewpointWater temp
2014-Jul-22 19:33N 58°29' E 018°39'34 2.8
2014-Jul-22 07:31N 58°54' E 017°58'1411.6
2014-Jul-22 06:16N 58°43' E 018°14'2413.9
2014-Jul-22 04:33N 58°26' E 018°46'1414.5
2014-Jul-22 03:34N 58°15' E 019°05'1514.6
2014-Jul-22 02:34N 58°07' E 019°28'1515.1
2014-Jul-22 01:34N 57°59' E 019°53'1515.2
2014-Jul-22 00:34N 57°51' E 020°17'1514.8
2014-Jul-21 23:34N 57°44' E 020°41'1514.6
2014-Jul-21 22:33N 57°36' E 021°04'4 0.6
2014-Jul-21 16:33N 57°34' E 021°09'2322.9
2014-Jul-21 15:33N 57°45' E 020°33'3122.9
2014-Jul-21 14:13N 58°02' E 019°44'913.9
2014-Jul-21 13:33N 58°06' E 019°29'1312.9
2014-Jul-21 12:33N 58°13' E 019°09'1514.3
2014-Jul-21 11:32N 58°24' E 018°50'1714.1
2014-Jul-21 10:19N 58°36' E 018°26'46 5.2
2014-Jul-21 01:33N 58°06' E 019°32'1615.1
2014-Jul-21 00:29N 57°58' E 019°59'3015.2
2014-Jul-20 22:33N 57°42' E 020°45'31 4.2
2014-Jul-20 15:15N 57°24' E 021°32'1420.0
2014-Jul-20 14:33N 57°32' E 021°12'2823.0
2014-Jul-20 13:22N 57°47' E 020°28'6215.3
2014-Jul-20 09:17N 58°22' E 018°50'1014.4
2014-Jul-20 08:33N 58°30' E 018°37'65 5.0
2014-Jul-19 19:33N 57°38' E 019°50'2914.4
2014-Jul-19 17:33N 57°33' E 020°43'1414.4
2014-Jul-19 16:33N 57°29' E 021°09'1312.6
2014-Jul-19 15:33N 57°25' E 021°31'31 2.7
2014-Jul-19 04:03N 57°42' E 020°43'714.6
2014-Jul-19 03:34N 57°46' E 020°31'3414.1
2014-Jul-19 01:07N 58°04' E 019°36'  
Track history (hours):
 
Tides and Currents Weather Stations Pressure Air Temp Water Temp Dewpoint Dewpoint Depression Visibility Wind Speed Wind Dir Waves Ship Positions

Scottish Viking

Last reported at 2014-Jul-22 19:33 UTC. Time now 2014-Jul-22 19:52 UTC.
Position N 58°29' E 018°39'.

Length 186 m; draft 6.3 m.

Type: Ship. MMSI: 247265800.

Date/timePositionNaut miles runAvg speedWind from/ knotsBaromVisibWave heightAir tempDewpointWater temp
2014-Jul-22 19:33N 58°29' E 018°39'34 2.8
2014-Jul-22 07:31N 58°54' E 017°58'1411.6
2014-Jul-22 06:16N 58°43' E 018°14'2413.9
2014-Jul-22 04:33N 58°26' E 018°46'1414.5
2014-Jul-22 03:34N 58°15' E 019°05'1514.6
2014-Jul-22 02:34N 58°07' E 019°28'1515.1
2014-Jul-22 01:34N 57°59' E 019°53'1515.2
2014-Jul-22 00:34N 57°51' E 020°17'1514.8
2014-Jul-21 23:34N 57°44' E 020°41'1514.6
2014-Jul-21 22:33N 57°36' E 021°04'4 0.6
2014-Jul-21 16:33N 57°34' E 021°09'2322.9
2014-Jul-21 15:33N 57°45' E 020°33'3122.9
2014-Jul-21 14:13N 58°02' E 019°44'913.9
2014-Jul-21 13:33N 58°06' E 019°29'1312.9
2014-Jul-21 12:33N 58°13' E 019°09'1514.3
2014-Jul-21 11:32N 58°24' E 018°50'1714.1
2014-Jul-21 10:19N 58°36' E 018°26'46 5.2
2014-Jul-21 01:33N 58°06' E 019°32'1615.1
2014-Jul-21 00:29N 57°58' E 019°59'3015.2
2014-Jul-20 22:33N 57°42' E 020°45'31 4.2
2014-Jul-20 15:15N 57°24' E 021°32'1420.0
2014-Jul-20 14:33N 57°32' E 021°12'2823.0
2014-Jul-20 13:22N 57°47' E 020°28'6215.3
2014-Jul-20 09:17N 58°22' E 018°50'1014.4
2014-Jul-20 08:33N 58°30' E 018°37'65 5.0
2014-Jul-19 19:33N 57°38' E 019°50'2914.4
2014-Jul-19 17:33N 57°33' E 020°43'1414.4
2014-Jul-19 16:33N 57°29' E 021°09'1312.6
2014-Jul-19 15:33N 57°25' E 021°31'31 2.7
2014-Jul-19 04:03N 57°42' E 020°43'714.6
2014-Jul-19 03:34N 57°46' E 020°31'3414.1
2014-Jul-19 01:07N 58°04' E 019°36'  

Dump ship's entire track history